GFSNE_con_mucape_159.txt.gz
CAPE
1434 1260 1327 1085 1458 1430 739 894 552 256 255 383 244 346 739 519 141 134 315 297 5 0 0 0 0 0 0 1 56 136 147 155 134 150 155 136 91 89
1309 1375 1252 1184 1059 769 1185 922 686 528 251 513 444 345 280 643 295 283 575 214 6 2 0 0 0 0 0 0 0 1 1 12 31 51 63 43 67 39
1344 1059 1275 1248 1473 1371 1147 966 896 1088 701 719 806 603 572 457 537 385 610 183 197 70 30 0 0 0 0 0 0 0 0 0 0 0 0 0 0 0
963 1234 1176 1284 1138 1183 756 1070 832 986 795 578 514 436 502 635 386 339 324 323 386 80 36 0 0 0 0 0 0 0 0 0 0 0 0 0 0 0
1247 1105 916 890 874 780 1425 665 726 653 618 483 385 310 500 405 471 433 305 250 185 75 28 8 2 1 0 0 0 1 1 0 0 1 0 0 0 3
1401 1419 1331 814 926 709 1080 857 1071 535 555 525 332 387 515 535 324 307 192 137 68 38 22 15 6 20 10 6 8 11 13 4 9 6 4 2 5 9
1524 1320 1230 1420 1141 1271 1256 906 619 840 808 612 654 488 445 189 178 149 108 159 11 28 6 11 68 47 12 12 7 5 3 9 14 30 18 2 4 1
1403 1416 1231 1028 679 645 632 483 129 102 254 329 376 248 90 54 72 62 22 79 4 4 13 24 42 73 46 20 18 23 6 0 0 0 0 0 0 0
1401 1256 1195 1134 689 639 284 91 80 30 9 33 67 18 0 0 0 0 5 13 15 5 7 25 28 23 31 24 13 4 0 0 0 0 0 0 0 0
997 1102 1191 1004 1008 715 465 279 132 32 10 0 0 0 0 0 0 0 0 0 0 1 9 11 11 12 25 12 3 0 0 0 0 0 0 0 0 0
818 936 1109 1049 981 953 632 382 206 69 24 0 0 0 0 0 0 0 1 0 0 0 0 6 5 3 0 0 0 0 0 0 0 0 0 0 0 0
730 732 988 986 864 638 582 407 183 54 28 0 0 0 0 0 0 0 0 0 0 0 0 0 0 0 0 0 0 0 0 0 0 0 0 0 0 0
748 719 681 774 694 434 289 200 93 102 1 4 3 8 5 0 0 0 0 0 0 0 0 0 0 1 2 14 0 0 0 0 0 0 0 0 0 0
703 644 480 825 471 241 77 78 59 32 13 12 7 5 3 0 0 0 0 0 0 0 0 0 0 0 0 1 0 1 0 0 0 0 0 0 0 0
470 490 466 165 43 77 66 41 10 1 8 16 2 0 0 0 0 0 0 0 0 0 0 0 0 0 0 0 0 0 6 0 4 16 22 12 8 23
289 244 201 86 92 90 71 13 3 5 5 2 1 0 0 2 0 0 0 0 0 0 0 0 0 0 0 0 0 0 0 0 0 0 5 5 9 7
187 189 159 11 84 11 4 0 8 8 8 3 2 0 0 0 0 0 0 0 0 0 0 0 0 0 0 0 0 0 0 0 0 0 0 0 5 86
29 11 19 14 0 1 9 7 3 1 0 0 0 0 0 0 0 0 0 0 0 0 0 0 0 0 0 0 0 0 0 0 0 0 0 0 0 47
0 3 2 0 9 0 1 0 0 0 0 0 0 0 0 0 0 0 0 0 0 0 0 0 0 0 0 0 0 0 0 0 0 0 0 0 0 0
34 50 36 34 36 6 0 0 0 0 0 0 0 0 0 0 0 0 0 0 0 0 0 0 0 0 0 0 0 0 0 0 0 0 0 0 0 0
66 89 73 49 27 11 1 0 0 0 0 0 0 0 0 0 0 0 0 0 0 0 0 0 0 0 0 0 0 0 9 12 5 2 0 0 0 0
67 61 37 27 4 0 0 0 0 0 0 0 0 0 0 0 0 0 0 0 0 0 0 0 0 0 0 0 0 0 5 14 10 2 0 0 0 0
0 51 0 0 0 0 0 0 0 0 0 0 0 0 0 0 0 0 0 0 0 0 0 0 1 0 0 0 0 0 1 20 12 3 0 0 0 0

GFSNE_con_mucape_162.txt.gz
CAPE
1257 1192 996 1046 1393 941 649 604 225 57 81 263 304 127 213 346 203 62 180 189 18 0 0 0 0 0 0 3 64 38 150 167 116 102 106 124 115 128
1123 1188 950 908 888 681 966 696 574 263 19 268 345 344 176 210 282 108 206 211 8 5 6 0 0 0 0 0 1 3 23 38 24 49 46 38 50 62
781 1167 897 1018 977 1170 870 738 739 592 574 570 612 473 338 290 464 286 293 422 51 100 37 0 0 0 0 0 0 0 0 0 0 0 0 0 0 0
603 1029 1008 1020 854 1021 789 760 682 838 567 256 374 250 407 447 502 285 250 163 139 159 45 2 0 0 0 0 0 0 0 0 0 0 0 0 0 0
1018 705 804 777 566 570 956 619 616 508 428 290 251 219 299 323 255 218 213 139 128 92 51 32 13 0 0 0 0 0 0 0 0 0 1 1 2 5
1112 1076 1302 897 879 674 802 759 600 436 315 237 134 216 280 294 345 274 227 225 198 116 50 34 50 6 11 1 4 3 1 2 8 17 20 10 29 2
980 1137 1311 1039 846 770 629 823 544 429 569 399 419 310 294 272 246 203 161 153 98 32 45 24 37 30 23 17 30 24 14 3 8 14 35 14 0 0
966 1057 1142 1015 808 824 864 766 448 369 290 272 263 159 139 106 93 126 169 85 25 30 16 10 46 12 67 9 23 16 8 0 7 0 0 0 0 0
1307 1086 1112 1113 958 671 541 450 274 63 51 69 68 103 58 30 24 20 5 9 14 27 15 2 27 33 17 26 14 17 5 0 0 0 0 0 0 0
1228 1127 975 998 963 727 543 348 140 85 24 10 11 0 0 0 0 3 5 4 10 17 23 24 15 26 14 20 20 2 0 0 0 0 0 0 0 0
925 1049 992 864 940 907 631 495 294 170 62 0 0 0 0 0 0 0 0 0 0 0 1 1 5 12 13 3 0 0 0 0 0 0 0 0 0 0
908 888 905 859 904 890 817 685 542 269 73 0 0 0 0 0 1 14 13 3 0 0 0 3 0 0 0 0 0 0 0 0 0 0 0 0 0 0
492 657 735 924 919 969 774 699 493 147 40 7 1 2 2 0 0 0 0 33 0 0 0 0 0 0 0 2 0 0 0 0 0 0 0 0 0 0
407 467 516 689 685 729 784 599 302 102 44 32 0 2 0 0 0 0 0 0 0 0 0 0 0 0 0 0 0 0 0 0 0 0 4 0 0 0
333 412 430 501 481 412 491 355 148 88 53 21 8 0 1 1 0 0 0 0 0 0 0 0 0 0 0 0 1 0 0 0 0 0 0 0 0 0
209 355 447 335 371 327 251 139 96 81 34 21 9 2 6 0 0 6 1 0 0 0 0 0 0 0 0 0 0 0 0 0 0 0 0 0 20 16
119 184 271 302 266 206 117 51 21 48 46 8 6 20 4 0 0 0 0 0 0 0 0 0 0 0 0 0 0 0 0 0 0 0 0 0 0 0
42 92 128 103 101 68 7 30 23 17 32 15 1 0 0 0 0 0 0 0 0 0 0 0 0 0 0 0 0 0 0 0 0 0 0 0 0 0
35 21 13 3 2 2 20 24 21 3 1 0 0 0 0 0 0 0 0 0 0 0 0 0 0 0 0 0 0 0 0 0 0 0 0 0 0 0
2 2 2 2 3 1 5 22 23 8 0 0 0 0 0 0 0 0 0 0 0 0 0 0 0 0 0 0 0 0 0 0 0 0 0 0 0 0
29 33 24 36 64 78 77 71 36 5 0 0 0 0 0 0 0 0 0 0 0 0 0 0 0 0 0 0 0 0 0 0 0 0 0 0 0 0
38 38 50 52 59 55 23 1 1 0 0 0 0 0 0 0 0 0 0 0 0 0 0 0 0 0 0 0 0 0 0 0 0 7 4 0 0 0
63 26 49 2 0 0 0 0 0 0 0 0 0 0 0 0 0 0 0 0 0 0 0 0 0 0 0 0 0 0 0 0 0 0 1 1 2 0

GFSNE_con_mucape_165.txt.gz
CAPE
1116 1136 1044 963 873 799 771 523 374 94 113 251 349 224 31 126 132 61 67 57 50 0 0 0 0 0 1 3 10 53 222 136 102 100 102 106 105 153
961 938 1005 880 824 744 994 542 482 235 3 83 254 356 150 305 252 209 41 108 91 0 2 0 0 0 0 1 2 7 3 22 39 28 32 6 9 11
904 851 913 825 871 964 863 730 594 518 491 418 505 449 203 197 183 193 144 119 245 20 44 18 0 0 0 0 0 1 2 5 9 5 10 1 0 11
549 720 883 881 904 873 884 786 659 662 612 403 389 362 341 406 294 258 255 127 203 47 57 43 15 0 0 0 0 0 0 0 0 0 0 0 0 3
489 473 531 607 884 705 696 700 578 610 561 345 208 273 330 418 355 327 258 117 117 83 87 51 35 18 4 15 10 7 9 8 6 6 14 21 32 40
675 932 917 981 858 612 576 695 559 448 404 284 180 149 240 265 269 240 152 151 137 95 120 125 35 23 51 18 19 12 18 16 15 15 23 24 42 58
679 922 956 945 1065 735 694 660 596 466 312 270 235 231 295 235 158 125 133 80 76 87 109 31 44 20 35 22 47 28 7 25 24 11 11 13 11 1
972 830 840 1075 946 840 815 730 632 520 321 318 223 219 180 225 204 176 80 45 21 125 70 23 43 30 43 23 33 27 24 19 16 0 0 0 0 0
1087 1158 1049 965 1083 1034 782 530 474 332 302 235 150 152 111 96 79 108 110 88 82 82 24 34 15 33 35 13 16 0 13 13 10 0 0 0 0 0
1053 1030 925 942 913 952 828 539 372 199 92 35 21 33 48 31 33 10 29 42 29 39 22 22 12 11 11 30 12 9 14 1 0 0 0 0 0 0
974 957 1088 1019 954 834 685 598 406 314 177 121 79 44 2 0 0 0 1 13 8 9 12 14 20 28 48 21 18 13 0 0 0 0 0 0 0 0
1050 1115 1106 1092 895 886 814 703 475 370 297 197 107 48 12 0 1 5 0 0 0 0 0 0 6 9 2 4 0 0 0 0 0 0 0 0 0 0
733 822 730 868 983 1015 757 593 557 414 311 243 118 21 0 0 1 2 3 5 0 2 0 0 0 0 0 0 0 0 0 0 0 0 0 0 0 0
570 587 542 506 617 811 728 512 411 415 366 219 102 39 0 0 0 0 0 21 9 0 0 0 0 0 3 1 1 0 0 0 0 0 0 0 0 0
313 336 246 331 396 537 544 447 295 214 249 229 114 40 1 0 0 0 0 0 1 0 0 0 0 0 0 0 0 0 0 0 0 0 0 0 0 0
125 137 184 214 322 460 412 172 271 220 166 264 87 25 9 0 0 0 0 0 1 0 0 0 0 0 0 0 1 0 0 0 0 0 0 0 3 5
6 40 109 186 371 409 424 287 254 276 184 60 43 12 18 24 17 0 1 0 0 0 0 0 0 0 0 0 0 0 0 0 0 0 0 0 0 0
1 3 16 136 189 257 297 245 84 91 72 34 25 4 16 2 3 3 0 0 0 0 0 0 0 0 0 0 0 0 0 0 0 0 0 0 0 0
10 10 11 27 39 73 71 82 56 7 4 40 16 1 3 1 0 0 0 0 0 0 0 0 0 0 0 0 0 0 0 0 0 0 0 0 0 0
0 6 8 18 11 1 2 3 3 10 7 25 0 0 0 0 0 0 0 0 0 0 0 0 0 0 0 0 0 0 0 0 0 0 0 0 0 0
1 0 3 0 0 2 2 0 11 16 25 35 15 2 1 0 0 0 0 0 0 0 0 0 0 0 0 0 0 0 0 0 0 0 0 0 0 0
55 44 27 31 42 35 23 12 16 13 12 12 2 0 0 0 0 0 0 0 0 0 0 0 0 0 0 0 0 0 0 0 0 0 0 2 0 0
62 35 69 46 21 19 0 0 0 0 0 0 0 0 0 0 0 0 0 0 0 0 0 0 0 0 0 0 0 0 0 0 0 0 0 0 3 10

GFSNE_con_mucape_168.txt.gz
CAPE
853 852 942 916 867 839 589 491 329 546 542 698 960 624 403 409 208 121 46 73 66 7 0 0 0 0 1 1 2 27 138 99 92 87 84 107 96 95
759 753 766 902 785 734 620 561 410 371 389 178 599 490 519 532 141 248 94 67 96 42 0 4 0 0 0 0 1 1 2 20 55 35 24 10 5 4
746 774 886 627 672 833 813 700 539 341 468 340 353 470 273 370 147 122 184 159 129 162 20 42 16 0 0 0 0 1 2 2 3 2 2 1 0 18
867 618 764 909 1030 752 834 896 668 682 731 774 632 439 320 265 273 251 202 230 168 142 26 1 10 0 6 0 0 0 0 1 0 0 0 1 1 1
754 779 581 582 912 761 699 710 645 665 591 529 598 276 292 402 291 246 233 253 161 142 106 50 9 36 15 1 10 9 15 18 22 20 33 24 32 47
746 755 826 779 771 470 631 980 692 745 458 370 304 315 311 246 342 227 168 140 92 48 89 7 27 19 3 9 25 24 24 20 8 16 18 23 22 20
820 820 921 881 772 659 808 921 664 568 445 419 308 280 316 156 135 84 93 113 69 10 16 13 69 21 22 21 7 28 42 14 10 16 20 18 6 4
817 831 965 668 763 772 768 649 576 579 580 483 461 456 343 259 204 129 107 64 23 7 17 21 4 11 23 26 5 14 17 5 0 11 9 8 0 0
957 990 962 864 874 879 899 780 680 508 469 505 487 317 183 128 165 127 121 42 20 13 29 9 16 22 20 38 17 24 0 0 0 3 5 0 0 0
872 971 1038 1174 875 867 948 766 625 436 365 302 231 223 112 71 76 75 29 7 26 17 10 9 37 12 18 5 6 8 0 7 7 0 0 0 0 0
841 907 1044 1064 870 834 838 726 625 433 322 198 100 60 48 29 17 21 24 6 13 21 52 61 28 23 13 18 22 4 12 3 0 0 0 0 0 0
664 715 746 875 942 891 995 807 805 608 422 209 158 119 83 41 1 0 0 0 24 18 1 1 2 5 16 3 5 9 0 0 0 0 0 0 0 0
563 581 537 602 711 849 957 978 757 639 371 285 266 210 167 82 20 3 0 2 1 0 1 1 0 1 5 4 2 0 0 0 0 0 0 0 0 0
246 241 322 347 397 386 398 438 520 586 395 236 141 198 181 132 67 32 1 5 9 0 0 0 0 0 2 0 0 0 0 0 0 0 0 0 0 0
138 136 152 210 242 204 246 270 259 344 280 170 174 159 137 129 85 38 4 2 38 20 0 0 0 0 0 0 3 0 0 0 0 0 0 0 0 0
0 6 35 82 128 134 141 212 232 320 297 120 74 46 89 89 94 27 4 0 6 0 8 0 0 0 0 0 5 0 1 12 0 0 0 0 0 0
0 1 4 8 228 166 95 313 281 317 292 211 47 68 22 7 6 14 35 11 10 2 1 0 0 0 0 0 0 3 0 0 0 0 0 0 0 0
4 8 1 0 0 13 142 129 196 215 173 52 16 4 3 17 4 8 3 4 1 0 0 0 0 0 0 0 0 0 0 0 0 0 0 0 0 0
0 2 4 13 0 16 14 23 112 35 13 18 8 4 3 3 0 5 5 0 0 0 0 0 0 0 0 0 0 0 0 0 0 0 0 0 0 0
1 1 2 13 8 10 18 19 21 14 4 5 3 11 20 3 0 0 0 1 1 0 0 0 0 0 0 0 0 0 0 0 0 0 0 0 0 0
0 0 0 0 3 11 4 5 3 5 2 0 0 0 3 0 5 0 24 36 10 0 0 0 0 0 0 0 0 0 0 0 0 0 0 0 0 1
37 16 23 27 24 32 27 19 13 10 34 14 6 5 4 1 0 0 18 13 0 0 0 0 0 0 0 0 0 0 0 0 0 0 0 0 2 8
74 38 6 32 21 49 56 57 38 29 8 0 0 0 0 0 0 0 0 0 0 0 0 0 0 0 0 0 0 0 0 0 0 0 0 0 0 0

GFSNE_con_mucape_171.txt.gz
CAPE
2393 2257 3001 1762 1928 1856 1875 1418 1892 825 1024 1260 1409 1548 1424 869 591 381 92 27 33 53 0 0 0 0 0 1 2 45 89 69 45 57 65 112 129 91
2217 2342 2385 1956 1874 1714 1764 1631 1376 1872 1320 590 1039 1303 1244 830 242 226 124 64 66 85 19 0 7 0 0 0 0 2 3 20 43 18 9 7 13 36
2246 1980 2023 2262 2025 2135 2151 2637 2231 1420 1754 1646 1117 1579 1399 502 63 80 97 146 159 115 99 6 22 3 0 0 0 0 0 1 1 1 2 0 0 7
1653 1794 1730 1298 2136 2319 1698 2341 1917 2028 1826 1497 2005 2056 1362 993 177 186 202 187 201 163 83 62 0 12 6 0 0 0 0 0 3 9 10 10 7 8
1616 1805 1860 1915 1901 1462 2383 2378 2783 2021 2301 2161 1978 1904 525 277 209 221 204 171 164 128 98 88 5 17 14 2 0 0 2 6 12 13 8 15 20 21
1651 1850 1865 2041 2086 2237 2271 2279 2284 2430 2480 2232 2136 1787 1484 248 282 175 114 83 115 70 0 2 9 1 6 5 0 5 8 10 8 15 8 9 12 9
1381 2012 2015 1904 1359 1240 1745 2298 2163 2340 2610 2189 2359 1261 1206 222 159 110 136 98 98 47 1 1 0 4 3 12 13 8 3 21 18 9 4 3 3 1
958 1025 1907 1185 899 551 619 662 806 2666 2179 1829 1895 1205 2124 1171 383 114 81 52 5 14 7 0 0 4 1 5 10 18 5 22 3 0 0 0 0 0
1404 1241 1339 1158 1215 1910 1367 767 741 641 582 2162 1678 1719 2281 2314 1484 277 111 81 60 28 2 0 3 6 3 20 8 5 15 3 0 0 1 0 0 0
1657 1891 2096 2074 1997 1874 2066 1837 1719 1569 910 743 1166 1740 1622 1388 1360 985 434 104 71 61 22 29 11 0 23 12 18 16 1 0 0 3 0 0 0 0
1770 1972 2049 2123 1655 1291 1613 1840 1843 1617 565 449 414 447 438 299 512 548 106 84 68 25 13 6 2 61 65 3 5 7 14 1 3 0 0 0 0 0
1572 1660 1106 967 1207 1165 866 1955 1881 1961 1257 381 474 328 183 149 127 465 247 77 50 3 20 13 69 44 18 13 1 5 0 1 0 0 0 0 0 0
1346 1365 1397 714 439 362 422 873 1342 1504 1198 791 568 376 301 253 207 203 336 232 23 7 49 24 19 13 1 9 22 1 2 0 0 0 0 0 0 0
235 420 419 231 166 190 226 253 291 350 853 329 295 276 261 192 133 146 106 94 80 74 19 0 15 3 5 57 65 18 6 0 0 0 0 0 0 0
60 89 94 84 78 76 119 131 152 156 180 173 183 194 216 193 102 42 22 77 69 54 5 1 10 9 64 49 29 11 7 0 0 0 0 15 25 7
5 4 5 0 0 3 16 39 90 122 151 151 135 105 254 242 137 100 17 22 78 28 4 2 9 8 9 94 53 46 24 16 2 44 55 0 0 21
0 0 1 0 1 2 3 8 21 68 90 243 198 189 200 200 142 43 21 17 37 3 13 21 0 0 11 52 62 44 53 53 38 8 0 0 0 0
0 0 0 0 0 2 3 0 1 0 18 7 17 24 4 20 1 34 25 12 21 14 5 2 2 0 0 5 34 49 28 12 0 0 0 0 0 0
0 0 0 0 0 0 0 0 3 1 4 1 7 1 0 3 3 2 3 3 2 0 0 0 0 0 0 0 0 0 0 0 0 0 0 0 0 0
12 3 0 1 0 0 2 2 2 7 6 0 0 0 0 5 3 3 3 2 0 0 0 0 0 0 0 0 0 0 0 0 0 0 1 4 6 0
10 14 18 20 14 0 0 0 0 0 0 0 3 1 0 1 0 0 2 0 0 0 0 0 0 0 0 0 0 0 0 0 3 24 28 29 16 24
18 17 3 8 16 5 1 7 1 9 8 12 8 0 4 0 0 0 10 0 0 1 0 0 0 0 0 0 0 0 0 0 0 0 0 1 11 12
43 26 20 13 14 20 17 38 4 3 35 16 10 0 0 0 0 0 33 6 6 4 7 0 0 0 0 0 0 2 8 6 0 0 7 0 0 0

GFSNE_con_mucape_174.txt.gz
CAPE
1699 2125 1909 948 1275 1223 1354 1277 1064 695 1422 1565 2277 1916 1890 2040 962 893 731 38 12 8 11 0 0 0 0 0 1 10 42 82 46 45 82 129 123 113
1518 1727 1948 1292 1342 1251 1305 2497 1343 1373 1096 996 1262 1754 1740 1429 957 1033 342 64 55 61 41 2 0 0 0 0 0 1 10 35 82 75 49 48 47 91
1527 1562 1833 1808 1123 1367 1623 1544 1675 1509 1370 830 2129 1963 2159 1706 808 531 67 270 96 117 73 42 0 0 5 1 0 0 0 0 3 4 3 6 13 21
1743 1465 1398 1204 1815 1898 1452 1822 2424 1626 1296 1581 1695 1318 2254 1672 553 356 322 103 147 138 141 73 63 0 12 8 1 0 0 0 0 6 10 11 16 13
1760 1684 1527 1537 1886 1559 1723 1509 1245 1425 1799 1149 1279 2422 1816 983 298 169 196 186 163 133 105 68 44 39 7 0 10 0 0 0 0 7 2 2 1 3
1540 1858 1865 1593 1723 1873 1895 2041 1919 1758 1637 1694 1298 1695 2576 727 211 195 188 99 103 138 43 0 0 1 0 0 1 0 0 0 2 0 0 0 0 0
1578 1811 1901 1704 1281 1418 1485 2480 2010 1801 1402 1462 1300 3070 3252 910 412 157 152 87 137 41 65 21 0 0 0 0 0 1 0 0 0 4 5 0 0 0
1790 1712 1827 1291 1287 1013 652 451 846 2172 2087 2254 1247 2190 3322 2883 1501 638 72 46 9 33 22 24 0 0 0 2 2 0 0 0 0 0 0 0 0 0
1714 1683 1518 834 901 1640 1161 909 755 557 657 1686 1857 1679 2318 2365 2820 1650 549 213 307 30 12 3 0 0 0 0 2 10 10 3 9 0 0 0 0 0
1495 1692 1953 1923 1765 1670 1888 1862 1964 1932 1615 1229 1623 1819 1875 2054 2116 2486 1351 781 225 105 23 0 0 0 5 4 1 19 8 1 0 0 0 0 0 0
2172 2225 2098 2188 1785 1634 2183 1797 1670 1584 1026 1332 1136 865 952 798 1064 2114 1382 491 102 45 0 3 1 3 14 1 27 9 0 3 6 0 0 0 0 0
2176 2677 1424 1387 1581 1322 2038 2133 2020 2149 1641 1419 1003 541 480 461 334 878 1618 557 354 13 11 4 0 24 1 75 72 9 6 5 0 1 0 0 0 0
1704 1816 1784 988 1022 652 459 1182 1617 1442 1571 1981 2168 1434 1016 887 646 391 1402 1158 1018 152 31 18 2 62 77 96 65 12 11 16 31 17 0 0 0 0
600 733 833 444 276 130 143 159 136 135 238 691 1938 1762 1243 1206 759 750 418 248 283 184 30 23 31 52 72 54 50 6 10 35 22 13 0 0 0 0
81 58 42 53 57 76 61 54 41 61 95 139 302 393 508 493 199 188 149 121 99 88 5 3 47 52 3 4 7 20 23 38 25 3 0 0 0 0
0 0 0 0 0 0 3 19 1 16 60 87 108 120 184 187 135 101 103 133 170 111 33 7 34 23 3 9 0 0 34 2 0 15 86 117 73 2
0 6 0 1 3 7 0 2 24 10 10 27 33 84 199 253 213 181 145 45 21 5 4 48 20 2 11 5 1 34 25 64 62 123 136 16 0 3
8 3 0 0 0 0 0 0 0 2 0 7 8 5 2 0 0 0 0 0 2 2 13 9 8 3 3 0 26 209 174 147 114 78 23 0 0 0
4 8 8 3 0 0 0 0 0 0 2 5 5 5 1 0 0 0 0 0 0 2 4 2 1 4 0 0 18 51 43 46 38 0 0 0 0 3
21 26 17 17 13 0 0 0 0 0 0 0 0 0 0 0 1 0 0 6 3 2 3 2 3 2 0 0 0 15 3 3 0 0 0 1 1 0
57 15 19 20 27 26 2 17 0 1 0 0 0 0 0 0 0 2 0 1 1 0 0 1 0 0 0 0 0 0 0 0 1 8 15 21 23 32
127 118 85 101 38 38 39 6 0 1 0 0 0 0 0 1 0 0 2 1 1 0 0 0 0 0 0 0 0 3 3 3 0 0 0 0 8 19
78 160 128 132 22 74 16 22 1 0 10 28 7 0 1 29 30 31 43 10 1 3 0 0 0 0 0 5 3 12 22 8 19 13 1 0 0 0